sat.trackr.live / text

‹ back to catalog

STARLINK-34939

NORAD 65183 · 2025-175K

PAYLOAD ACTIVE UNKNOWN

§ Identity

Operator
Country
US
Launch date
2025-08-14
Launch site
AFWTR
Launch vehicle
Mass (kg)
RCS (m²)

Purposes: comms

External: N2YO · Heavens-Above · Gunter

§ Orbital elements

Epoch: 2026-05-25T03:29:57.679008Z

Period
95.64 min
Inclination
97.4501°
Eccentricity
0.0002620
Mean motion
15.05659894 rev/d
Perigee alt
547.7 km
Apogee alt
551.3 km
Semi-major
6,927.6 km
B*
2.2237e-4
RAAN
17.6216°
Arg perigee
83.6615°
Mean anomaly
276.4911°
Rev number
4,411

§ Raw data

STARLINK-349391 65183U 25175K   26145.14580647  .00003152  00000+0  22237-3 0  99952 65183  97.4501  17.6216 0002620  83.6615 276.4911 15.05659894 44115

JSON: /api/v1/satellites/65183 · /tle

For live sub-satellite position, see the globe view (requires WebGL).

§ Visibility from observer

Set your observer location to see the next 7 days of passes ≥ 10°. The values pass through the URL so the page stays shareable.

No JS? Fill the form by hand. The geolocation button needs JavaScript.